Location: Antioch Baptist Church
(32.6696°N, 85.7327°W)
Time: 12:22:51
(UTC+00:00)

CARTOSAT-1 - Pass Details

Date: 14 July 2020
Orbit: 617 x 618 km, 97.8° (Epoch: 09 August)

Event Time Altitude Azimuth Distance (km) Brightness Sun altitude
Exits shadow 03:38:10 57° 324° (NW) 732 4.1 -27.4°
Drops below altitude 10° 03:41:41 10° 344° (NNW) 1,985 7.0 -27.8°
Sets 03:43:53 0° 346° (NNW) 2,894 8.1 -28.1°
